Location: Recife
(8.0585°S, 34.8848°W)
Time: 12:06:48
(UTC-03:00)

Vanguard 2 Rocket - Pass Details

Date: 15 April 2026
Orbit: 553 x 3286 km, 32.9° (Epoch: 7 May)

Event Time Altitude Azimuth Distance (km) Brightness Sun altitude
Rises 09:27:58 0° 237° (WSW) 5,455 10.5 56.9°
Reaches altitude 10° 09:32:05 10° 225° (SW) 4,855 10.4 57.8°
Maximum altitude 09:44:14 28° 171° (S) 4,435 10.6 60.2°
Drops below altitude 10° 09:59:48 10° 119° (ESE) 6,235 11.4 63.2°
Sets 10:06:08 0° 108° (ESE) 7,225 11.6 64.4°
